Location: Asheville, NC
(35.6000°N, 82.5500°W)
Time: 02:16:03

FO-29 - Pass Details

Date: 14 March 2018
Orbit: 800 x 1321 km, 98.5° (Epoch: 16 March)

Event Time Altitude Azimuth Distance (km) Brightness Sun altitude
Rises 21:06:50 0° 14° (NNE) 4,057 12.7 -19.0°
Reaches altitude 10° 21:09:22 10° 16° (NNE) 3,151 12.1 -19.5°
Maximum altitude 21:16:46 78° 103° (ESE) 1,311 9.9 -21.0°
Drops below altitude 10° 21:24:36 10° 189° (S) 3,335 12.2 -22.5°
Sets 21:27:21 0° 191° (S) 4,306 12.8 -23.1°
